| time (UTC) | temp F | wind direction | speed knots | gust knots | rain 1hr in | rain 24hr in | rain mn in | humidity % | barometer mb |
| 20260507031541 | 45 | 345 | 0.0 | 0.0 | 0.00 | 0.00 | 0.00 | 44 | 1013.8 |
| 20260507030042 | 46 | 345 | 0.0 | 0.0 | 0.00 | 0.00 | 0.00 | 43 | 1013.9 |
| 20260507024540 | 47 | 345 | 0.0 | 0.0 | 0.00 | 0.00 | 0.00 | 41 | 1014.0 |
| 20260507023039 | 48 | 345 | 0.0 | 0.0 | 0.00 | 0.00 | 0.00 | 37 | 1013.9 |
| 20260507021539 | 49 | 345 | 0.0 | 0.0 | 0.00 | 0.00 | 0.00 | 35 | 1013.9 |
| 20260507020039 | 50 | 321 | 0.0 | 0.9 | 0.00 | 0.00 | 0.00 | 34 | 1014.0 |
| 20260507014551 | 50 | 321 | 0.0 | 0.9 | 0.00 | 0.00 | 0.00 | 34 | 1013.9 |
| 20260507013045 | 51 | 353 | 0.0 | 1.7 | 0.00 | 0.00 | 0.00 | 34 | 1013.9 |
| 20260507011540 | 51 | 346 | 0.9 | 4.3 | 0.00 | 0.00 | 0.00 | 33 | 1013.8 |
| 20260507010037 | 52 | 314 | 2.6 | 6.1 | 0.00 | 0.00 | 0.00 | 32 | 1013.9 |
| 20260507004536 | 52 | 354 | 2.6 | 5.2 | 0.00 | 0.00 | 0.00 | 32 | 1013.9 |
| 20260507003037 | 52 | 316 | 1.7 | 6.1 | 0.00 | 0.00 | 0.00 | 32 | 1013.9 |
| 20260507001539 | 53 | 330 | 2.6 | 8.7 | 0.00 | 0.00 | 0.00 | 32 | 1014.0 |
| 20260507000034 | 53 | 319 | 1.7 | 6.1 | 0.00 | 0.00 | 0.00 | 33 | 1014.1 |
| 20260506234533 | 53 | 318 | 1.7 | 5.2 | 0.00 | 0.00 | 0.00 | 33 | 1014.2 |
| 20260506233033 | 54 | 314 | 2.6 | 7.0 | 0.00 | 0.00 | 0.00 | 32 | 1014.3 |
| 20260506231530 | 53 | 301 | 3.5 | 8.7 | 0.00 | 0.00 | 0.00 | 32 | 1014.4 |
| 20260506230030 | 53 | 20 | 4.3 | 13.9 | 0.00 | 0.00 | 0.00 | 32 | 1014.5 |
| 20260506224526 | 54 | 318 | 2.6 | 10.4 | 0.00 | 0.00 | 0.00 | 33 | 1014.6 |
| 20260506223025 | 52 | 277 | 2.6 | 7.0 | 0.00 | 0.00 | 0.00 | 33 | 1014.8 |
| 20260506221524 | 52 | 304 | 3.5 | 11.3 | 0.00 | 0.00 | 0.00 | 33 | 1014.9 |
| 20260506220024 | 52 | 229 | 2.6 | 8.7 | 0.00 | 0.00 | 0.00 | 35 | 1014.9 |
| 20260506214523 | 52 | 20 | 2.6 | 8.7 | 0.00 | 0.00 | 0.00 | 34 | 1015.0 |
| 20260506213022 | 53 | 257 | 2.6 | 7.0 | 0.00 | 0.00 | 0.00 | 34 | 1015.1 |
| 20260506211522 | 53 | 307 | 2.6 | 10.4 | 0.00 | 0.00 | 0.00 | 34 | 1015.4 |
| 20260506210018 | 52 | 324 | 4.3 | 10.4 | 0.00 | 0.00 | 0.00 | 35 | 1015.5 |
| 20260506204519 | 52 | 330 | 5.2 | 10.4 | 0.00 | 0.00 | 0.00 | 35 | 1015.8 |
| 20260506203021 | 52 | 318 | 4.3 | 12.2 | 0.00 | 0.00 | 0.00 | 36 | 1015.8 |
| 20260506201515 | 52 | 338 | 4.3 | 8.7 | 0.00 | 0.00 | 0.00 | 36 | 1016.2 |
| 20260506200014 | 51 | 329 | 4.3 | 10.4 | 0.00 | 0.00 | 0.00 | 35 | 1016.3 |
| 20260506194512 | 50 | 347 | 5.2 | 10.4 | 0.00 | 0.00 | 0.00 | 37 | 1016.5 |
| 20260506193008 | 50 | 245 | 5.2 | 13.0 | 0.00 | 0.00 | 0.00 | 38 | 1016.6 |
| 20260506191508 | 50 | 279 | 5.2 | 11.3 | 0.00 | 0.00 | 0.00 | 38 | 1016.7 |
| 20260506190008 | 50 | 312 | 6.1 | 13.0 | 0.00 | 0.00 | 0.00 | 38 | 1016.8 |
| 20260506184503 | 48 | 323 | 5.2 | 11.3 | 0.00 | 0.00 | 0.00 | 39 | 1017.0 |
| 20260506183005 | 49 | 283 | 3.5 | 10.4 | 0.00 | 0.00 | 0.00 | 40 | 1017.1 |
| 20260506181601 | 48 | 294 | 4.3 | 11.3 | 0.00 | 0.00 | 0.00 | 40 | 1017.2 |
| 20260506180106 | 47 | 300 | 4.3 | 12.2 | 0.00 | 0.00 | 0.00 | 37 | 1017.2 |
| 20260506174558 | 47 | 37 | 3.5 | 13.0 | 0.00 | 0.00 | 0.00 | 39 | 1017.3 |
| 20260506173117 | 47 | 276 | 4.3 | 11.3 | 0.00 | 0.00 | 0.00 | 38 | 1017.5 |
| 20260506171600 | 46 | 311 | 2.6 | 13.0 | 0.00 | 0.00 | 0.00 | 40 | 1017.6 |
| 20260506170052 | 46 | 309 | 3.5 | 12.2 | 0.00 | 0.00 | 0.00 | 40 | 1017.6 |
| 20260506164550 | 46 | 348 | 5.2 | 13.0 | 0.00 | 0.00 | 0.00 | 41 | 1017.5 |
| 20260506163050 | 45 | 352 | 1.7 | 11.3 | 0.00 | 0.00 | 0.00 | 43 | 1017.6 |
| 20260506161554 | 45 | 344 | 5.2 | 12.2 | 0.00 | 0.00 | 0.00 | 41 | 1017.7 |
| 20260506160050 | 45 | 4 | 4.3 | 13.0 | 0.00 | 0.00 | 0.00 | 43 | 1017.5 |
| 20260506154545 | 45 | 307 | 6.1 | 11.3 | 0.00 | 0.00 | 0.00 | 43 | 1017.6 |
| 20260506153045 | 45 | 354 | 4.3 | 10.4 | 0.00 | 0.00 | 0.00 | 45 | 1017.5 |
| 20260506151543 | 45 | 334 | 2.6 | 7.8 | 0.00 | 0.00 | 0.00 | 46 | 1017.5 |
| 20260506150040 | 44 | 355 | 3.5 | 9.6 | 0.00 | 0.00 | 0.00 | 47 | 1017.6 |
| 20260506144538 | 43 | 331 | 4.3 | 9.6 | 0.00 | 0.00 | 0.00 | 47 | 1017.6 |
| 20260506143036 | 43 | 342 | 3.5 | 7.0 | 0.00 | 0.00 | 0.00 | 50 | 1017.4 |
| 20260506141533 | 42 | 298 | 2.6 | 7.0 | 0.00 | 0.00 | 0.00 | 51 | 1017.3 |
| 20260506140031 | 41 | 342 | 2.6 | 5.2 | 0.00 | 0.00 | 0.00 | 53 | 1017.4 |
| 20260506134602 | 40 | 322 | 1.7 | 5.2 | 0.00 | 0.00 | 0.00 | 54 | 1017.4 |
| 20260506133025 | 40 | 336 | 1.7 | 3.5 | 0.00 | 0.00 | 0.00 | 55 | 1017.3 |
| 20260506131527 | 39 | 6 | 0.9 | 3.5 | 0.00 | 0.00 | 0.00 | 59 | 1017.3 |
| 20260506130022 | 37 | 289 | 1.7 | 2.6 | 0.00 | 0.00 | 0.00 | 62 | 1017.2 |
| 20260506124520 | 35 | 323 | 0.9 | 3.5 | 0.00 | 0.00 | 0.00 | 64 | 1017.1 |
| 20260506123018 | 33 | 296 | 0.0 | 0.9 | 0.00 | 0.00 | 0.00 | 66 | 1016.9 |
| 20260506121517 | 32 | 296 | 0.0 | 0.9 | 0.00 | 0.00 | 0.00 | 68 | 1016.8 |
| 20260506120015 | 31 | 328 | 0.0 | 1.7 | 0.00 | 0.00 | 0.00 | 68 | 1016.7 |
| 20260506114521 | 31 | 299 | 0.0 | 0.9 | 0.00 | 0.00 | 0.00 | 68 | 1016.3 |
| 20260506113010 | 31 | 316 | 0.0 | 1.7 | 0.00 | 0.00 | 0.00 | 68 | 1016.1 |
| 20260506111509 | 31 | 335 | 0.0 | 0.9 | 0.00 | 0.00 | 0.00 | 67 | 1016.1 |
| 20260506110012 | 32 | 250 | 0.0 | 0.0 | 0.00 | 0.00 | 0.00 | 67 | 1015.9 |
| 20260506104505 | 32 | 193 | 0.0 | 0.9 | 0.00 | 0.00 | 0.00 | 66 | 1015.7 |
| 20260506103017 | 32 | 298 | 0.0 | 0.0 | 0.00 | 0.00 | 0.00 | 68 | 1015.7 |
| 20260506101504 | 31 | 297 | 0.0 | 0.0 | 0.00 | 0.00 | 0.00 | 69 | 1015.7 |
| 20260506100002 | 31 | 297 | 0.0 | 0.0 | 0.00 | 0.00 | 0.00 | 68 | 1015.5 |
| 20260506094502 | 31 | 297 | 0.0 | 0.0 | 0.00 | 0.00 | 0.00 | 68 | 1015.4 |
| 20260506093101 | 31 | 271 | 0.0 | 0.0 | 0.00 | 0.00 | 0.00 | 69 | 1015.3 |
| 20260506091556 | 32 | 271 | 0.0 | 0.0 | 0.00 | 0.00 | 0.00 | 66 | 1015.1 |
| 20260506090053 | 32 | 316 | 0.0 | 0.0 | 0.00 | 0.00 | 0.00 | 65 | 1014.9 |
| 20260506084551 | 33 | 316 | 0.0 | 0.0 | 0.00 | 0.00 | 0.00 | 63 | 1014.8 |
| 20260506083108 | 33 | 316 | 0.0 | 0.0 | 0.00 | 0.00 | 0.00 | 63 | 1014.6 |
| 20260506081550 | 34 | 316 | 0.0 | 0.0 | 0.00 | 0.00 | 0.00 | 62 | 1014.7 |
| 20260506073041 | 35 | 325 | 0.0 | 0.0 | 0.00 | 0.00 | 0.00 | 58 | 1014.5 |
| 20260506071539 | 36 | 325 | 0.0 | 0.9 | 0.00 | 0.00 | 0.00 | 57 | 1014.5 |
| 20260506061537 | 37 | 345 | 0.0 | 0.9 | 0.00 | 0.00 | 0.00 | 54 | 1014.5 |
| 20260506044519 | 40 | 344 | 0.0 | 1.7 | 0.00 | 0.00 | 0.00 | 50 | 1013.8 |
| 20260506043017 | 40 | 353 | 0.9 | 3.5 | 0.00 | 0.00 | 0.00 | 50 | 1013.6 |
| 20260506041517 | 41 | 11 | 0.0 | 4.3 | 0.00 | 0.00 | 0.00 | 49 | 1013.8 |
| 20260506040021 | 42 | 358 | 0.9 | 3.5 | 0.00 | 0.00 | 0.00 | 47 | 1013.7 |
| 20260506034514 | 43 | 343 | 0.9 | 5.2 | 0.00 | 0.00 | 0.00 | 45 | 1013.6 |
| 20260506033015 | 44 | 334 | 0.9 | 4.3 | 0.00 | 0.00 | 0.00 | 44 | 1013.6 |